Weather in Hoofddorp

Netherlands     52°18′25″N   4°42′12″E
temp.,
°C
wind,
m/s
gust,
m/s
humid.,
%
clouds,
%
prec.,
mm/h
press.,
hPa
HPBL,
m
2 december, thu
thu201:00+6nw4869100 0.4 998629
04:00+6nw61175100 1.6 9981227
07:00+5nw71264100 3.4 9981041
10:00+4n51082100 1.6 1000912
13:00+7n5115236 2.8 10021669
16:00+5n4959100 0.3 1005752
19:00+4nnw13678 0.7 100784
22:00+3w127399 0.1 101046
3 december, fri
fri301:00+4ssw226998 0.3 101029
04:00+4sw3774100 0.1 1009192
07:00+5wsw4106799 0.4 1009540
10:00+5sw51161100 0.0 10071023
13:00+4ssw71591100 0.2 1005884
16:00+4ssw61588100 0.1 1003784
19:00+4ssw51290100 0.4 1001756
22:00+4ssw41091100 0.2 998599
4 december, sat
sat401:00+4s389597 2.3 996348
04:00+4sse3695100 0.1 994229
07:00+5sse369799 0.1 993192
10:00+8wsw41088100 0.6 993482
13:00+8w5972100 0.9 992823
16:00+8w4880100 0.3 993487
19:00+7wnw81289100 1.4 995983
22:00+7w61168100 0.4 996960
5 december, sun
sun501:00+7w5972100 0.8 997754
04:00+6w6983100 1.6 998876
07:00+6wsw4886100 3.3 999899
10:00+6ssw3686100 0.2 1002616
13:00+6ene228398 0.3 1007269
16:00+4ne599499 0.1 1011618
19:00+3ene3108315 0.1 1015502
22:00+4ene2784100 0.0 1018446
6 december, mon
mon601:00+4nne1182100 0.0 102043
04:00+4se118099 0.0 102264
07:00+4se237595 0.0 102387
10:00+4sse2472100 0.0 1024160
13:00+6s366488 0.0 1024546
16:00+5ssw4768100 0.0 1024615
19:00+4ssw41072100 0.0 1025568
22:00+4ssw51172100 0.0 1025557